Date,TemperatureHighF,TemperatureAvgF,TemperatureLowF,DewpointHighF,DewpointAvgF,DewpointLowF,HumidityHigh,HumidityAvg,HumidityLow,PressureMaxIn,PressureMinIn,WindSpeedMaxMPH,WindSpeedAvgMPH,GustSpeedMaxMPH,PrecipitationSumIn
2013-1-1,56.8,53.2,45.6,51.3,49.1,39.5,93,86,73,30.14,29.93,11,2,14,0.02
2013-1-2,52.4,48.8,42.1,51.0,46.4,39.3,95,91,85,30.19,29.86,10,1,13,0.23
2013-1-3,42.1,39.6,31.0,39.4,37.0,28.7,93,90,87,30.25,30.11,9,1,11,0.05
2013-1-4,55.6,37.5,26.3,38.1,30.5,24.3,95,78,46,30.32,30.18,9,1,11,0.00
2013-1-5,54.8,37.6,24.5,36.5,29.7,22.0,93,75,41,30.38,30.27,7,0,9,0.00
2013-1-6,46.3,43.6,38.8,43.9,40.6,34.1,93,89,83,30.28,30.05,5,0,6,0.03
2013-1-7,58.4,44.4,31.9,42.5,36.7,30.1,95,77,46,30.42,30.13,12,2,15,0.00
2013-1-8,66.8,52.4,41.7,53.0,45.4,38.9,90,78,60,30.38,30.33,11,1,14,0.00
2013-1-9,76.2,54.6,39.0,62.1,49.4,36.9,95,84,57,30.40,30.32,8,1,10,0.00
2013-1-10,70.6,56.2,45.9,56.3,47.7,38.5,95,75,48,30.48,30.38,15,2,19,0.00
2013-1-11,73.5,57.6,46.3,66.5,52.9,-18.7,96,84,68,30.41,30.14,11,1,13,0.04
2013-1-12,80.9,63.1,53.0,68.0,59.0,51.6,97,87,57,30.16,30.07,10,1,13,0.00
2013-1-13,77.3,61.5,49.9,64.6,56.3,48.2,95,84,60,30.15,30.07,8,1,10,0.00
2013-1-14,80.0,64.1,51.3,65.1,58.1,49.6,97,82,54,30.17,30.09,14,2,17,0.00
2013-1-15,71.5,60.7,55.0,64.3,57.6,52.8,96,90,77,30.16,30.04,12,2,15,0.00
2013-1-16,80.6,63.8,53.1,66.5,58.7,50.7,97,85,55,30.04,29.92,16,2,20,0.00
2013-1-17,73.5,57.7,40.8,64.7,54.3,38.7,96,89,72,29.97,29.75,16,3,20,0.63
2013-1-18,54.2,41.1,29.6,38.9,33.4,25.9,93,76,44,30.51,29.97,12,2,16,0.04
2013-1-19,64.2,41.8,26.9,44.2,33.6,23.8,92,75,44,30.49,30.17,6,1,8,0.00
2013-1-20,69.3,48.7,36.3,47.5,38.1,31.1,95,71,31,30.17,29.98,14,1,18,0.00
2013-1-21,66.1,47.1,30.5,44.1,36.7,27.6,91,70,39,30.06,29.86,13,2,17,0.00
2013-1-22,47.9,38.0,24.9,35.5,22.0,13.1,76,55,25,30.25,29.94,12,1,15,0.00
2013-1-23,45.9,31.6,22.0,21.1,14.7,9.5,71,51,28,30.37,30.10,10,1,12,0.00
2013-1-24,45.6,34.8,24.1,34.6,21.1,7.2,85,59,40,30.50,29.97,17,3,22,0.00
2013-1-25,34.4,27.3,17.0,27.7,17.6,6.9,91,68,49,30.51,30.11,10,1,13,0.12
2013-1-26,45.5,33.7,24.7,38.9,29.1,21.6,91,84,66,30.37,30.11,6,1,10,0.02
2013-1-27,48.0,33.4,23.4,31.9,26.4,20.6,93,77,50,30.57,30.37,16,2,20,0.00
2013-1-28,62.4,45.1,27.0,53.4,39.3,22.7,97,81,63,30.50,30.25,10,1,12,0.00
2013-1-29,76.7,59.4,45.0,61.0,53.6,43.9,97,83,52,30.25,30.11,11,2,14,0.00
2013-1-30,73.4,65.9,57.5,64.2,61.0,56.1,98,85,70,30.13,29.55,27,5,34,0.00
2013-1-31,70.2,50.3,37.0,65.2,33.7,26.2,86,55,33,30.06,29.49,22,4,28,2.04
2013-2-1,53.3,39.6,22.9,33.2,21.8,10.3,70,51,24,30.37,29.99,25,4,32,0.00
2013-2-2,51.8,34.5,18.0,35.3,21.1,11.4,81,60,29,30.41,30.03,16,2,20,0.00
2013-2-3,56.6,41.8,30.5,40.5,32.0,26.3,93,71,39,30.04,29.85,11,2,14,0.00
2013-2-4,50.3,37.4,24.3,31.8,27.6,21.2,91,70,43,30.15,29.98,10,1,12,0.00
2013-2-5,68.1,49.4,35.8,41.3,36.6,31.5,91,65,34,30.04,29.88,17,2,22,0.00
2013-2-6,69.9,49.7,34.8,51.6,39.5,0.0,96,72,35,30.23,29.96,8,1,11,0.00
2013-2-7,58.9,47.8,38.8,51.2,44.4,31.7,97,89,71,30.26,29.79,19,4,24,1.14
2013-2-8,60.6,50.3,43.3,51.3,46.7,31.7,98,88,66,30.01,29.57,23,4,30,1.91
2013-2-9,58.6,42.1,28.5,39.6,30.5,23.9,88,66,35,30.35,30.01,16,2,21,0.76
2013-2-10,60.4,42.1,26.2,44.8,33.5,23.0,91,74,34,30.47,30.25,12,2,16,0.76
2013-2-11,65.2,59.5,47.7,62.4,57.7,44.6,97,94,88,30.29,29.93,17,4,23,0.76
2013-2-12,68.6,57.6,51.2,58.7,49.8,-18.1,97,78,38,30.08,29.93,14,2,19,0.76
2013-2-13,57.4,50.8,46.7,56.3,49.3,31.7,99,95,89,29.97,29.60,10,2,14,0.03
2013-2-14,56.6,45.5,35.8,47.7,39.6,33.7,96,81,53,30.07,29.80,10,1,14,0.00
2013-2-15,66.3,45.4,30.3,46.4,36.1,28.7,98,74,35,30.08,29.94,8,1,10,0.00
2013-2-16,51.7,39.4,33.0,43.4,35.6,30.6,95,87,70,29.93,29.72,14,2,18,0.21
2013-2-17,43.0,33.1,25.1,31.8,22.2,14.3,95,67,33,30.27,29.88,21,4,27,0.01
2013-2-18,56.5,35.3,19.1,26.7,21.8,15.5,91,63,22,30.43,30.27,12,1,16,0.00
2013-2-19,61.3,46.9,28.5,53.0,41.7,22.8,93,82,67,30.29,29.89,15,2,20,0.01
2013-2-20,60.6,44.7,31.2,40.1,30.5,20.0,96,64,22,30.11,29.95,12,1,16,0.00
2013-2-21,61.5,41.8,27.2,30.7,26.7,21.8,82,59,25,30.23,30.07,11,1,15,0.00
2013-2-22,46.7,42.4,38.1,41.6,34.2,27.4,91,73,64,30.30,30.06,12,2,16,0.00
2013-2-23,46.8,44.1,41.2,46.0,42.9,40.1,98,96,91,30.06,29.80,8,1,10,0.43
2013-2-24,68.1,50.8,38.8,52.7,45.3,36.3,99,84,47,29.99,29.76,11,2,15,0.01
2013-2-25,45.2,40.6,35.2,37.4,33.6,31.9,94,77,61,30.17,29.98,12,2,16,0.00
2013-2-26,68.2,54.0,40.1,65.5,51.3,32.7,99,91,74,30.07,29.57,22,5,29,1.63
2013-2-27,61.0,51.6,44.2,55.6,44.7,40.6,95,78,56,29.81,29.62,11,3,15,0.00
2013-2-28,58.8,45.5,32.6,44.7,37.8,28.5,97,76,48,29.84,29.70,13,2,17,0.00
2013-3-1,57.9,41.8,29.6,38.2,31.9,26.9,93,70,41,29.90,29.79,10,2,14,0.00
2013-3-2,53.5,38.4,28.7,36.1,30.1,25.8,93,74,46,29.89,29.79,10,1,14,0.00
2013-3-3,51.0,38.1,28.7,32.2,26.2,22.3,82,64,39,29.95,29.82,13,2,17,0.00
2013-3-4,53.9,36.7,25.3,26.4,21.9,19.2,78,58,27,30.10,29.95,12,2,16,0.00
2013-3-5,67.0,48.7,28.7,54.2,36.3,22.2,90,65,36,30.09,29.59,15,3,19,0.03
2013-3-6,58.6,48.5,41.7,55.1,35.8,27.5,90,62,41,29.96,29.51,22,8,29,0.00
2013-3-7,58.3,44.3,32.1,36.5,31.4,-18.1,83,62,40,30.18,29.95,15,3,24,0.00
2013-3-8,58.4,42.3,28.1,33.2,28.1,23.6,85,60,32,30.24,30.09,12,2,20,0.00
2013-3-9,67.2,47.5,34.5,39.4,32.8,25.5,82,59,34,30.29,30.20,11,2,18,0.00
2013-3-10,70.2,48.0,28.3,39.0,30.1,23.8,92,58,19,30.30,30.21,13,2,20,0.00
2013-3-11,69.9,54.8,38.8,55.7,46.4,33.7,94,75,54,30.25,29.95,22,4,35,0.00
2013-3-12,70.6,62.0,55.2,64.3,59.0,51.5,98,90,74,29.95,29.74,12,2,18,0.44
2013-3-13,64.6,51.9,41.7,51.5,36.3,28.8,89,58,30,30.07,29.88,12,2,19,0.00
2013-3-14,56.5,42.2,30.8,30.1,25.2,20.3,76,52,32,30.23,30.06,13,2,22,0.00
2013-3-15,65.4,44.9,26.0,39.2,29.4,22.5,93,60,26,30.19,29.95,11,2,18,0.00
2013-3-16,82.4,63.8,47.7,51.4,46.5,38.4,75,55,30,29.95,29.70,16,4,27,0.00
2013-3-17,75.9,58.0,47.6,54.8,48.0,42.0,87,70,41,30.11,29.85,19,4,31,0.00
2013-3-18,69.5,52.7,44.8,56.2,47.1,40.3,92,82,61,30.12,29.87,12,2,19,0.01
2013-3-19,71.8,56.4,43.9,55.7,48.3,34.3,96,77,39,29.97,29.70,11,2,17,0.37
2013-3-20,59.0,48.0,35.2,34.7,27.7,17.6,75,48,22,30.10,29.79,10,1,16,0.00
2013-3-21,55.4,40.9,28.7,35.7,25.8,17.0,92,59,28,29.95,29.67,14,2,22,0.00
2013-3-22,55.4,38.6,24.5,26.9,20.3,14.4,74,50,28,30.08,29.94,9,1,14,0.00
2013-3-23,58.4,42.9,30.5,41.4,34.5,24.6,90,73,52,30.04,29.89,5,0,8,0.00
2013-3-24,52.6,44.5,38.1,51.1,42.2,34.5,97,92,79,29.91,29.42,22,3,35,0.74
2013-3-25,53.0,44.1,35.2,43.2,37.5,28.9,99,79,50,29.82,29.50,13,3,21,0.01
2013-3-26,50.6,40.1,28.9,35.2,30.5,25.7,90,70,49,30.08,29.81,12,1,19,0.00
2013-3-27,58.3,43.3,27.6,33.8,28.7,23.0,90,59,33,30.20,30.08,16,2,24,0.00
2013-3-28,59.7,42.3,26.7,33.0,27.3,21.5,87,58,33,30.25,30.13,12,2,19,0.00
2013-3-29,63.7,42.0,26.9,37.3,29.8,0.0,92,66,28,30.32,30.17,7,1,10,0.00
2013-3-30,66.3,51.0,41.4,50.6,42.0,33.4,89,73,44,30.24,30.11,10,1,15,0.00
2013-3-31,74.2,58.2,42.8,57.8,50.5,37.8,94,77,49,30.12,29.83,18,3,28,0.06
2013-4-1,72.6,59.9,48.1,62.3,55.5,45.5,98,87,55,29.90,29.80,10,2,15,0.33
2013-4-2,66.3,52.7,40.8,46.4,38.7,33.0,94,62,35,30.13,29.90,10,2,15,0.00
2013-4-3,59.3,48.7,39.9,42.2,36.6,30.6,90,66,37,30.27,30.09,12,1,18,0.00
2013-4-4,49.7,45.4,43.0,48.8,41.6,36.0,97,87,71,30.28,29.77,18,3,27,0.62
2013-4-5,60.6,48.2,41.0,50.7,44.9,38.5,98,89,68,30.01,29.77,12,2,19,0.00
2013-4-6,70.4,51.0,35.0,45.7,38.8,-18.1,97,68,32,30.27,30.01,19,3,28,0.00
2013-4-7,72.7,54.0,33.2,55.0,44.6,30.2,93,72,46,30.27,30.13,19,2,29,0.00
2013-4-8,81.3,62.8,44.3,62.0,52.5,42.4,96,72,41,30.19,30.08,14,2,20,0.00
2013-4-9,84.2,68.1,52.6,66.3,58.5,50.8,97,74,43,30.21,30.08,12,2,17,0.00
2013-4-10,86.6,69.9,57.0,65.6,60.4,55.2,99,74,45,30.14,30.00,12,2,18,0.00
2013-4-11,83.3,69.7,58.8,68.2,63.1,56.6,97,81,57,30.02,29.85,18,3,26,0.00
2013-4-12,83.6,70.7,65.7,72.6,67.2,64.5,98,90,63,29.86,29.66,25,4,36,0.51
2013-4-13,75.5,62.6,49.5,65.3,54.6,46.3,98,77,46,30.01,29.74,12,2,18,0.01
2013-4-14,78.6,60.4,42.3,61.3,50.1,40.4,97,72,36,30.09,30.01,10,1,15,0.00
2013-4-15,70.6,63.5,58.4,62.0,58.5,54.1,94,84,72,30.17,29.96,14,2,20,0.16
2013-4-16,77.0,64.7,55.2,66.0,59.3,53.3,97,84,65,30.26,30.16,13,2,19,0.00
2013-4-17,84.2,65.8,50.1,65.9,57.7,48.7,97,78,48,30.23,30.11,12,1,17,0.00
2013-4-18,79.3,66.1,53.5,66.0,60.0,52.0,96,82,58,30.19,30.06,19,3,28,0.02
2013-4-19,79.5,71.2,63.7,72.3,67.6,61.5,98,89,75,30.06,29.84,20,4,29,0.37
2013-4-20,65.9,56.2,43.2,65.1,50.6,40.3,98,82,60,30.24,29.85,9,1,13,0.17
2013-4-21,66.8,49.7,38.8,50.1,41.2,-34.9,96,75,42,30.43,30.23,20,2,29,0.00
2013-4-22,62.6,51.2,40.6,51.7,44.6,35.9,91,79,66,30.41,30.16,11,2,16,0.00
2013-4-23,70.2,55.9,49.2,56.2,50.2,46.6,94,83,58,30.19,30.10,12,2,18,0.01
2013-4-24,77.9,61.1,43.5,60.2,53.2,41.7,97,78,49,30.17,30.03,15,2,22,0.00
2013-4-25,75.5,63.9,50.4,61.8,57.7,48.0,93,81,58,30.26,30.04,14,2,20,0.00
2013-4-26,77.1,58.1,42.1,53.1,46.1,40.4,97,69,33,30.39,30.24,14,2,20,0.00
2013-4-27,76.6,61.4,49.4,54.0,46.9,42.0,89,63,34,30.36,30.26,16,2,24,0.00
2013-4-28,73.5,62.6,51.9,55.3,49.5,44.9,83,64,41,30.27,30.08,12,3,25,0.00
2013-4-29,74.3,65.0,61.0,66.2,60.5,55.2,95,86,72,30.08,29.96,14,2,20,0.00
2013-4-30,76.8,64.7,59.0,67.0,61.6,57.5,97,90,69,30.11,29.97,15,1,21,0.00
2013-5-1,74.8,63.5,57.2,64.5,59.9,55.7,97,89,68,30.23,30.08,14,1,20,0.00
2013-5-2,70.4,62.8,55.9,64.5,59.0,52.0,97,88,76,30.24,30.17,16,2,22,0.00
2013-5-3,70.8,60.3,53.3,59.7,53.3,45.6,94,79,59,30.19,30.11,18,3,26,0.00
2013-5-4,69.9,58.6,49.9,58.0,52.2,45.7,92,80,63,30.13,30.00,19,3,27,0.00
2013-5-5,71.1,61.1,51.2,62.5,56.4,48.7,95,85,69,30.02,29.91,25,4,36,0.03
2013-5-6,78.6,64.9,55.7,66.4,60.0,52.4,97,86,53,29.94,29.82,18,2,24,0.17
2013-5-7,73.5,60.9,50.6,58.5,52.4,49.0,97,76,48,29.95,29.84,12,1,15,0.00
2013-5-8,78.6,64.0,49.0,61.1,54.3,47.2,96,74,45,30.00,29.92,13,2,17,0.00
2013-5-9,83.6,69.1,55.0,65.6,58.6,52.7,95,72,42,30.06,29.96,8,1,10,0.00
2013-5-10,87.5,71.7,56.6,69.2,61.1,54.5,96,72,43,30.07,29.98,12,1,16,0.00
2013-5-11,84.4,74.1,66.8,73.1,66.2,61.0,94,77,55,30.00,29.81,15,2,20,0.00
2013-5-12,81.4,71.1,59.6,66.9,59.8,49.2,96,70,40,29.97,29.77,11,1,14,0.00
2013-5-13,73.1,60.7,45.7,49.2,43.2,37.0,74,54,33,30.12,29.97,12,1,16,0.00
2013-5-14,74.9,57.5,39.2,47.9,42.3,35.5,92,61,29,30.24,30.12,11,1,14,0.00
2013-5-15,88.6,69.0,49.9,65.4,56.4,44.9,92,66,42,30.12,29.93,12,2,16,0.00
2013-5-16,90.9,75.1,62.1,69.3,63.3,57.5,88,68,39,29.99,29.91,9,1,11,0.00
2013-5-17,91.4,76.6,63.9,69.1,64.5,61.0,94,69,39,30.09,29.98,8,1,10,0.00
2013-5-18,86.8,73.6,62.3,71.1,64.9,58.0,92,75,53,30.16,30.07,13,1,17,0.00
2013-5-19,79.9,70.1,64.1,72.9,66.9,61.6,96,90,73,30.15,30.07,9,1,11,0.00
2013-5-20,79.9,71.1,67.0,73.0,68.7,66.1,98,93,76,30.14,30.04,9,1,12,0.01
2013-5-21,81.0,70.4,67.9,74.1,68.7,65.8,98,95,77,30.07,30.00,6,1,8,0.00
2013-5-22,85.3,74.2,64.3,74.5,68.4,63.1,98,83,63,30.03,29.94,12,2,16,0.00
2013-5-23,85.3,73.2,67.3,73.8,69.1,65.8,97,88,60,29.98,29.83,12,1,16,0.20
2013-5-24,78.7,68.5,51.8,68.2,59.4,42.7,98,75,45,30.14,29.77,18,2,24,0.00
2013-5-25,76.0,59.0,42.3,50.2,45.4,38.9,91,64,34,30.27,30.11,12,1,16,0.00
2013-5-26,71.1,58.7,49.1,55.7,50.9,46.3,94,77,53,30.24,30.13,4,0,7,0.00
2013-5-27,83.5,63.3,32.0,61.2,51.5,32.0,100,70,33,30.26,30.17,14,1,18,0.00
2013-5-28,84.8,69.7,53.8,68.4,60.9,51.1,94,75,56,30.25,30.17,14,2,19,0.00
2013-5-29,85.9,72.3,59.4,71.4,64.2,57.6,96,78,53,30.25,30.17,14,2,19,0.00
2013-5-30,88.4,73.2,57.8,73.1,66.1,55.9,96,80,59,30.26,30.17,14,2,19,0.00
2013-5-31,86.2,74.1,63.0,74.6,68.2,61.2,97,83,63,30.22,30.12,13,2,17,0.00
2013-6-1,88.6,78.2,0.0,72.5,67.5,0.0,94,71,10,30.15,30.05,14,2,18,0.00
2013-6-2,88.6,74.8,32.0,72.4,66.9,32.0,100,79,50,30.09,29.93,16,2,22,0.00
2013-6-3,81.9,73.2,32.0,76.0,70.4,32.0,100,91,79,29.96,29.88,10,1,14,0.94
2013-6-4,87.1,74.4,67.1,73.5,68.0,63.4,94,81,62,30.07,29.89,19,2,28,0.07
2013-6-5,84.6,74.2,64.8,68.2,63.6,59.1,82,70,53,30.10,30.00,16,3,21,0.07
2013-6-6,79.2,73.1,67.5,68.2,64.9,60.6,80,75,69,30.03,29.84,16,2,21,0.37
2013-6-7,78.8,73.7,32.0,68.6,63.1,32.0,100,70,62,29.84,29.57,24,5,32,1.61
2013-6-15,87.7,79.1,32.0,70.9,57.6,0.0,69,49,18,30.11,30.06,8,1,11,1.61
2013-9-24,76.0,64.8,32.0,58.8,46.8,-18.4,71,56,10,29.94,29.93,1,0,2,12.18
2013-10-28,63.0,55.7,52.5,52.6,50.4,49.5,92,83,69,31.01,30.15,0,0,0,0.00
2013-10-29,78.4,59.6,46.9,62.4,54.0,46.3,100,84,54,30.36,30.24,7,1,8,0.00
2013-10-30,78.7,62.2,47.6,62.8,55.4,47.6,100,81,45,30.36,30.18,6,0,7,0.00
2013-10-31,79.2,63.5,50.1,67.8,58.6,49.4,99,86,51,30.21,29.97,8,1,10,0.00
2013-11-1,82.9,73.9,68.4,72.9,68.7,65.2,94,84,63,29.97,29.68,11,3,17,0.05
2013-11-2,72.1,65.4,55.3,69.9,62.3,52.0,96,90,70,29.82,29.65,11,1,14,1.11
2013-11-3,68.3,53.7,43.7,52.1,45.2,39.7,96,76,44,30.27,29.82,10,1,12,0.05
2013-11-4,62.7,48.9,37.1,43.9,38.5,35.6,96,70,41,30.44,30.27,14,2,17,0.00
2013-11-5,72.4,57.5,43.1,60.6,51.1,37.7,92,80,62,30.41,30.33,10,1,11,0.00
2013-11-6,74.5,63.0,52.3,64.3,58.4,50.3,95,86,68,30.33,30.06,13,2,15,0.04
2013-11-7,73.6,65.8,53.0,68.3,62.8,45.7,97,90,74,30.06,29.85,13,1,15,0.17
2013-11-8,60.4,49.2,35.3,46.2,36.9,32.2,89,64,42,30.30,29.97,14,2,19,0.17
2013-11-9,63.9,48.1,31.9,48.4,40.4,29.8,96,77,46,30.36,30.12,10,1,14,0.00
2013-11-10,70.3,54.0,42.5,51.4,45.5,41.0,97,76,43,30.21,30.00,10,1,14,0.00
2013-11-11,62.9,49.1,37.6,42.8,37.6,31.9,90,67,43,30.30,30.12,10,1,14,0.00
2013-11-12,68.6,48.3,34.7,49.7,36.6,24.0,96,67,40,30.33,29.97,19,3,23,0.00
2013-11-13,48.1,36.2,26.5,29.3,23.5,18.8,84,62,40,30.44,30.30,19,3,23,0.04
2013-11-14,58.2,38.3,23.3,32.5,26.0,18.9,89,65,35,30.44,30.30,11,1,15,0.00
2013-11-15,70.0,51.4,31.3,56.0,43.7,26.2,91,76,51,30.33,30.12,16,2,22,0.00
2013-11-16,75.5,62.7,55.4,64.6,58.1,53.4,96,86,64,30.21,30.12,11,1,16,0.00
2013-11-17,77.7,65.0,55.6,67.3,61.4,54.4,97,89,67,30.21,29.94,11,2,18,0.00
2013-11-18,82.5,71.0,58.2,71.8,65.4,45.0,95,83,61,29.94,29.71,17,3,23,0.00
2013-11-19,61.4,50.5,40.6,45.3,35.1,31.1,75,57,37,30.27,29.88,15,2,20,0.00
2013-11-20,58.6,47.7,38.1,45.3,38.9,31.7,83,72,57,30.39,30.27,15,2,20,0.00
2013-11-21,72.3,57.0,45.4,59.0,50.9,41.2,95,81,62,30.41,30.33,13,2,18,0.00
2013-11-22,76.1,62.8,55.0,64.7,58.8,53.6,97,88,64,30.36,30.09,9,1,12,0.00
2013-11-23,64.7,60.8,46.8,62.8,56.7,37.6,96,87,69,30.12,30.00,12,1,18,0.00
2013-11-24,48.2,37.6,23.7,37.5,20.2,11.4,68,50,38,30.53,30.12,15,3,21,0.00
2013-11-25,47.0,33.0,21.5,25.9,17.1,10.3,67,53,32,30.59,30.33,9,1,13,0.00
2013-11-26,69.8,53.7,34.5,68.1,50.2,25.5,96,88,67,30.33,29.59,19,3,29,1.33
2013-11-27,70.0,53.3,33.5,68.5,51.4,27.0,97,93,77,30.15,29.44,22,4,34,1.16
2013-11-28,47.2,34.5,26.7,29.5,26.0,22.4,90,73,45,30.50,30.15,12,1,18,0.00
2013-11-29,55.4,38.5,26.3,36.5,29.5,23.9,96,72,42,30.56,30.47,13,1,20,0.00
2013-11-30,57.5,44.2,32.2,42.9,35.4,26.1,83,72,56,30.56,30.33,11,2,17,0.00
2013-12-1,59.1,49.2,42.5,50.1,44.5,38.1,95,84,71,30.33,30.00,6,0,9,0.00
2013-12-2,56.8,48.3,38.1,50.2,45.1,36.5,98,89,70,30.00,29.82,6,0,10,0.00
2013-12-3,63.9,48.7,34.2,49.9,43.6,33.2,98,84,57,30.03,29.88,9,1,13,0.00
2013-12-4,68.8,58.7,52.0,65.5,57.2,49.8,97,95,87,30.12,30.00,6,0,8,0.25
2013-12-5,76.6,63.6,53.1,68.1,60.0,52.5,98,89,66,30.18,30.06,11,1,15,0.25
2013-12-6,80.5,71.2,64.5,70.8,66.7,62.2,96,86,67,30.15,30.03,16,4,23,0.25
2013-12-7,69.5,55.6,43.4,67.0,53.8,42.7,97,94,85,30.41,30.03,14,3,20,0.45
2013-12-8,43.4,41.3,39.9,42.7,40.6,39.4,98,97,95,30.39,30.27,13,2,18,0.13
2013-12-9,67.3,52.9,41.0,64.9,52.0,40.4,98,97,92,30.27,30.06,7,1,10,0.13
2013-12-10,74.6,56.4,36.5,68.8,54.7,35.4,98,94,79,30.33,29.85,19,3,27,0.37
2013-12-11,52.5,38.5,27.2,37.4,31.8,26.3,98,79,46,30.47,30.30,9,1,12,0.37
2013-12-12,50.6,37.1,26.7,35.7,28.9,22.8,97,75,47,30.39,30.27,14,1,20,0.00
2013-12-13,55.9,37.7,23.8,34.3,27.6,20.7,94,70,37,30.44,30.27,9,1,13,0.00
2013-12-14,67.0,52.9,34.3,64.1,48.1,29.1,96,84,67,30.30,29.74,23,3,32,1.04
2013-12-15,63.0,52.9,37.2,61.9,50.2,34.5,97,91,77,30.09,29.71,12,2,17,0.21
2013-12-16,58.8,42.4,30.6,43.5,36.3,29.9,98,81,50,30.21,30.09,9,1,13,0.00
2013-12-17,64.7,50.3,35.1,46.0,40.7,34.0,98,72,44,30.18,29.97,15,2,21,0.00
2013-12-18,54.3,42.6,29.0,37.4,30.3,23.7,86,64,39,30.33,30.00,20,1,28,0.00
2013-12-19,63.4,43.3,27.6,42.1,32.6,23.6,93,70,37,30.36,30.27,8,1,11,0.00
2013-12-20,73.4,53.3,36.5,61.8,47.6,32.3,94,82,57,30.27,30.15,13,1,18,0.00
2013-12-21,76.8,63.1,49.1,67.6,59.3,48.1,98,88,69,30.18,30.09,16,1,22,0.00
2013-12-22,81.0,70.9,65.4,71.4,66.7,63.8,96,87,67,30.15,30.03,18,2,25,0.00
2013-12-23,75.3,69.4,55.9,70.8,66.5,54.8,96,91,83,30.12,29.97,18,4,26,0.49
2013-12-24,55.9,46.3,33.6,54.8,41.6,27.6,97,84,61,30.41,30.03,14,2,20,0.25
2013-12-25,46.3,37.0,27.4,28.7,24.6,18.6,79,61,48,30.53,30.36,13,2,18,0.00
2013-12-26,43.6,39.6,33.3,41.2,35.9,27.5,93,87,78,30.36,30.24,5,1,7,0.13
2013-12-27,55.7,40.8,31.0,39.6,33.2,28.1,96,77,46,30.44,30.33,10,1,14,0.00
2013-12-28,63.6,44.8,26.5,44.1,35.6,24.2,97,73,42,30.41,30.12,6,1,8,0.00
2013-12-29,70.5,61.5,48.8,67.0,58.3,43.6,95,89,74,30.12,29.68,24,3,33,0.41
2013-12-30,59.8,49.0,41.3,51.5,45.4,40.4,98,88,65,30.12,29.94,7,0,10,0.08
2013-12-31,56.5,47.3,35.4,45.4,40.4,32.3,98,79,50,30.36,30.09,11,1,16,0.00
2014-1-1,54.1,44.6,31.9,43.7,37.6,30.1,98,78,47,30.44,30.15,9,1,12,0.00
2014-1-2,52.0,49.1,45.6,51.5,48.2,43.4,98,97,92,30.15,29.56,16,1,123,0.83